[[{"header":{"parameterUnit":"m.s-1","parameterCategory":2,"la1":30.2991,"la2":30.254,"lo1":-89.0895,"lo2":-89.0444,"dy":0.0017,"dx":0.0017,"nx":28,"ny":28,"refTime":"2024-04-23T21:00:00:Z","depth":"0","parameterNumber":2,"parameterNumberName":"U-component_of_CURRENTS"},"data":[0,0,0,0,0,0,0,0,0,0,0,0,0,0,0,0,0,0,0,0,0,0,0,0,0,0,0,0,0,0,0,0,0,0,0,0,0,0,0,0,0,0,0,0,0,0,0,0,0,0,0,0,0,0,0,0,0,0,0.239,0.2391,0,0.242,0.242,0.242,0.2418,0.2418,0.2418,0.2418,0.2441,0.2442,0.2442,0,0,0,0,0,0,0,0,0,0,0,0,0,0.2328,0.2329,0.239,0.2391,0.2391,0.242,0.242,0.242,0.2418,0.2418,0.2418,0.2418,0.2441,0.2442,0.2443,0,0,0,0,0,0,0,0,0,0,0,0,0,0.2354,0.2329,0.239,0.2395,0.2396,0.242,0.242,0.242,0.2418,0.2418,0.2418,0.2417,0.244,0.2441,0.2443,0.2457,0,0,0.2446,0.2447,0,0,0,0,0,0,0,0,0.2353,0.2356,0.2394,0.2395,0.2396,0.2417,0.2407,0.2433,0.2419,0.2408,0.2418,0.2417,0.2434,0.2436,0.2439,0.2458,0.2459,0.2447,0.2447,0.2448,0.2448,0,0,0,0,0,0,0,0.2351,0.2355,0.24,0.2395,0.2396,0.2395,0.2398,0.2411,0.2421,0.2409,0.2409,0.2416,0.2434,0.2438,0.244,0.246,0.2447,0.2448,0.2448,0.2449,0.254,0.2542,0,0,0,0,0,0,0.2352,0.2353,0.2399,0.2401,0.2376,0.2397,0.24,0.2409,0.2421,0.2423,0.2416,0.2416,0.2436,0.2438,0.244,0.2503,0.2448,0.2449,0.245,0.2538,0.254,0.2542,0,0,0,0,0,0,0.2351,0.2356,0.2398,0.2379,0.2385,0.2398,0.2408,0.241,0.242,0.2427,0.2428,0.2426,0.2436,0.2439,0.2464,0.2502,0.245,0.2451,0.2536,0.2539,0.2541,0.2599,0,0,0,0,0,0,0.2349,0.2355,0.2363,0.2379,0.2386,0.2424,0.2409,0.2411,0.2425,0.2425,0.2436,0.2437,0.2436,0.2463,0.2466,0.2502,0.2452,0.2534,0.2538,0.2541,0.2595,0.2603,0.261,0,0,0,0,0,0.2347,0.2361,0.2363,0.2369,0.2395,0.2425,0.2428,0.2435,0.2426,0.244,0.2446,0.2437,0.2485,0.2465,0.2468,0.2506,0.2533,0.2537,0.254,0.2591,0.2601,0.261,0,0,0,0,0,0,0.2338,0.2363,0.2365,0.2386,0.2409,0.2426,0.2439,0.2441,0.2456,0.2454,0.2453,0.2456,0.2498,0.2492,0.247,0.2543,0.251,0.2515,0.2548,0.2557,0.2565,0.2562,0.2453,0,0,0,0,0,0.2341,0.2357,0.2381,0.2399,0.2412,0.2425,0.2437,0.2444,0.2459,0.2464,0.2472,0.2486,0.2516,0.2526,0.2547,0.2579,0.2619,0.2608,0.2615,0.2622,0.2623,0.2699,0.2713,0.2555,0.2555,0.2554,0,0,0.2341,0.2358,0.2366,0.2399,0.2414,0.2441,0.2431,0.2457,0.2481,0.2465,0.2497,0.2514,0.2531,0.2575,0.2593,0.2573,0.2702,0.2627,0.2632,0.263,0.2704,0.272,0.2733,0.2557,0.2557,0.2556,0,0,0.2354,0.2368,0.2388,0.2411,0.2442,0.2456,0.2466,0.249,0.2503,0.2535,0.2541,0.2576,0.2604,0.2632,0.2649,0.2709,0.2742,0.2719,0.2752,0.2826,0.284,0.2852,0.2982,0.3006,0.2719,0.2719,0.2719,0,0.2354,0.2382,0.2399,0.2427,0.2449,0.2465,0.2493,0.2516,0.2544,0.2565,0.2553,0.2623,0.2635,0.2702,0.2725,0.2728,0.2791,0.2715,0.2837,0.2849,0.2861,0.2991,0.3016,0.2722,0.2722,0.2722,0.2721,0,0.2383,0.2407,0.2424,0.2464,0.2491,0.2519,0.2554,0.258,0.2595,0.2618,0.2681,0.2701,0.2746,0.2761,0.276,0.2853,0.2883,0.2842,0.2813,0.288,0.3014,0.3039,0.2727,0.2726,0.2725,0.2724,0,0,0.2369,0.2431,0.2435,0.2459,0.2511,0.2536,0.2586,0.2638,0.2681,0.2707,0.2772,0.2815,0.2831,0.2851,0.2865,0.2915,0.3071,0.2914,0.2916,0.3044,0.3292,0.3318,0.3348,0.305,0.3053,0.3056,0.3374,0,0.2384,0.2439,0.2467,0.2518,0.2549,0.2585,0.2632,0.2682,0.2731,0.2801,0.2835,0.2905,0.2867,0.2909,0.2954,0.3043,0.313,0.2992,0.3206,0.3214,0.3227,0.3374,0.3277,0.355,0.3398,0.3402,0.3405,0,0.2395,0.2434,0.2483,0.255,0.2566,0.2595,0.2678,0.273,0.2829,0.2874,0.2941,0.2985,0.309,0.3036,0.3223,0.3141,0.3228,0.3282,0.3295,0.3307,0.3284,0.3446,0.3601,0.3453,0.3444,0.3441,0.3438,0,0.2371,0.2439,0.2477,0.2499,0.2579,0.2603,0.2649,0.2742,0.2817,0.2937,0.3023,0.3115,0.3219,0.3295,0.3431,0.3341,0.3656,0.3545,0.3661,0.3666,0.3619,0.3613,0.3646,0.3689,0.3688,0.3687,0.3686,0,0.2374,0.2402,0.2463,0.2484,0.2547,0.2593,0.2681,0.2745,0.2867,0.2979,0.3064,0.3189,0.3288,0.3471,0.3523,0.3721,0.3751,0.3719,0.3754,0.3643,0.3636,0.3527,0.3463,0.3699,0.3697,0.3694,0.3692,0,0.2348,0.2386,0.2437,0.2509,0.2537,0.2582,0.2709,0.277,0.2897,0.3057,0.3112,0.3316,0.3538,0.368,0.3878,0.389,0.3939,0.4094,0.3994,0.4009,0.3873,0.3817,0.3812,0.3697,0.4239,0.4242,0.4244,0,0.2342,0.2364,0.245,0.2478,0.2508,0.2588,0.2641,0.2771,0.2852,0.3129,0.3202,0.3488,0.3651,0.4004,0.4106,0.4283,0.4092,0.4289,0.4054,0.3905,0.3869,0.3666,0.3551,0.4056,0.4057,0.4057,0.4057,0,0.2334,0.2358,0.2396,0.247,0.2518,0.26,0.2684,0.2748,0.2916,0.3067,0.3283,0.3443,0.3815,0.3964,0.4242,0.4303,0.406,0.4298,0.4155,0.3758,0.3528,0.3421,0.3848,0.4061,0.406,0.406,0.406,0.406,0.2322,0.2344,0.2391,0.2452,0.2507,0.2559,0.259,0.2693,0.2826,0.3008,0.3241,0.3459,0.3777,0.4118,0.4174,0.4189,0.4096,0.4048,0.402,0.3846,0.3627,0.4095,0.4312,0.4313,0.4314,0.4315,0.4316,0,0.2297,0.2316,0.2369,0.2417,0.2429,0.2504,0.2576,0.2585,0.2669,0.2911,0.3101,0.3453,0.3652,0.3857,0.4034,0.3933,0.3698,0.3817,0.347,0.3385,0.3839,0.3714,0.3794,0.3794,0.3794,0.3795,0.3795,0.3795,0.2283,0.2305,0.2326,0.2323,0.2343,0.2343,0.2358,0.2398,0.2524,0.2714,0.292,0.3164,0.3514,0.3765,0.3743,0.3668,0.3336,0.325,0.317,0.3448,0.3462,0.3476,0.3337,0.3337,0.3337,0.2549,0.2544,0.254]},{"header":{"parameterUnit":"m.s-1","parameterCategory":2,"la1":30.2991,"la2":30.254,"lo1":-89.0895,"lo2":-89.0444,"dy":0.0017,"dx":0.0017,"nx":28,"ny":28,"refTime":"2024-04-23T21:00:00:Z","depth":"0","parameterNumber":3,"parameterNumberName":"V-component_of_CURRENTS"},"data":[0,0,0,0,0,0,0,0,0,0,0,0,0,0,0,0,0,0,0,0,0,0,0,0,0,0,0,0,0,0,0,0,0,0,0,0,0,0,0,0,0,0,0,0,0,0,0,0,0,0,0,0,0,0,0,0,0,0,-0.0015,-0.0016,0,-0.0102,-0.0103,-0.0104,-0.0159,-0.0159,-0.016,-0.016,-0.0272,-0.0274,-0.0277,0,0,0,0,0,0,0,0,0,0,0,0,0,0.0075,0.0074,-0.0015,-0.0016,-0.0017,-0.0102,-0.0103,-0.0104,-0.0159,-0.0159,-0.016,-0.016,-0.0271,-0.0274,-0.0277,0,0,0,0,0,0,0,0,0,0,0,0,0,0.0018,0.0074,-0.0014,-0.0056,-0.006,-0.0102,-0.0103,-0.0104,-0.0159,-0.0159,-0.016,-0.0161,-0.027,-0.0274,-0.0277,-0.0288,0,0,-0.0289,-0.0291,0,0,0,0,0,0,0,0,0.0022,0.0015,-0.0048,-0.0053,-0.0058,-0.0121,-0.0112,-0.0168,-0.0159,-0.012,-0.016,-0.0161,-0.0224,-0.0232,-0.0245,-0.0293,-0.0298,-0.029,-0.0292,-0.0293,-0.0295,0,0,0,0,0,0,0,0.0026,0.0019,-0.0048,-0.005,-0.0056,-0.008,-0.0088,-0.0123,-0.0167,-0.0123,-0.0128,-0.0139,-0.0227,-0.0241,-0.0248,-0.03,-0.0289,-0.0293,-0.0295,-0.0297,-0.0376,-0.0376,0,0,0,0,0,0,0.0036,0.0023,-0.0045,-0.0051,-0.002,-0.0081,-0.009,-0.0099,-0.0166,-0.0177,-0.0139,-0.0142,-0.0234,-0.0243,-0.0252,-0.0269,-0.0293,-0.0297,-0.0299,-0.0376,-0.0376,-0.0376,0,0,0,0,0,0,0.0038,0.0031,-0.0042,-0.0017,-0.0028,-0.0082,-0.0092,-0.0101,-0.0117,-0.0178,-0.0189,-0.0146,-0.0235,-0.0246,-0.0283,-0.0274,-0.0299,-0.0302,-0.0376,-0.0376,-0.0376,-0.0303,0,0,0,0,0,0,0.0042,0.0033,0.0035,-0.0016,-0.003,-0.0057,-0.0091,-0.0102,-0.0124,-0.0129,-0.0188,-0.0199,-0.0236,-0.0277,-0.0287,-0.0279,-0.0305,-0.0377,-0.0376,-0.0376,-0.0305,-0.03,-0.0295,0,0,0,0,0,0.0045,0.0054,0.0035,0.0027,-0.0027,-0.0057,-0.0065,-0.0105,-0.0124,-0.0123,-0.0168,-0.0197,-0.0281,-0.028,-0.0291,-0.0285,-0.0377,-0.0376,-0.0376,-0.0308,-0.0301,-0.0295,0,0,0,0,0,0,0.0097,0.0047,0.0026,0.002,-0.0014,-0.0067,-0.0069,-0.01,-0.0135,-0.0138,-0.0197,-0.0211,-0.0238,-0.0272,-0.0269,-0.0307,-0.0333,-0.0335,-0.0277,-0.0271,-0.0266,-0.0248,-0.0309,0,0,0,0,0,0.0108,0.0102,0.0049,0.0047,0.0033,-0.0017,-0.0034,-0.0061,-0.0102,-0.0118,-0.0162,-0.0207,-0.0244,-0.0266,-0.0302,-0.0324,-0.0339,-0.0327,-0.0322,-0.0318,-0.0311,-0.0346,-0.0343,-0.0374,-0.0374,-0.0374,0,0,0.0127,0.0101,0.0096,0.0058,0.003,0.0019,-0.0028,-0.0046,-0.0055,-0.0124,-0.0144,-0.0189,-0.0246,-0.0269,-0.0284,-0.0298,-0.0308,-0.0317,-0.0313,-0.0308,-0.0345,-0.0342,-0.0339,-0.0374,-0.0374,-0.0374,0,0,0.0166,0.014,0.0146,0.0122,0.0084,0.0054,0.005,-0.0,-0.0021,-0.0049,-0.01,-0.0142,-0.0195,-0.0237,-0.0265,-0.0255,-0.0279,-0.0263,-0.0225,-0.0259,-0.0256,-0.0254,-0.0227,-0.0224,-0.0262,-0.0262,-0.0262,0,0.0192,0.0188,0.0145,0.0144,0.0131,0.0073,0.0078,0.005,-0.0006,-0.0021,-0.0043,-0.013,-0.0179,-0.0219,-0.0216,-0.0242,-0.0244,-0.0241,-0.0251,-0.0249,-0.0249,-0.0222,-0.0219,-0.0259,-0.0259,-0.0259,-0.026,0,0.0228,0.0226,0.0231,0.0208,0.0192,0.0188,0.014,0.0124,0.009,0.0053,0.0011,-0.0059,-0.011,-0.0135,-0.0174,-0.0195,-0.0189,-0.0237,-0.0261,-0.0241,-0.0214,-0.0212,-0.0253,-0.0255,-0.0256,-0.0257,0,0,0.0286,0.0261,0.0263,0.0266,0.0225,0.0218,0.0207,0.0177,0.0179,0.0114,0.0115,0.0023,-0.0018,-0.0053,-0.0111,-0.0149,-0.0138,-0.0183,-0.0186,-0.0145,-0.0161,-0.0124,-0.0119,-0.0189,-0.0189,-0.0189,-0.0128,0,0.0329,0.0349,0.0318,0.0338,0.0346,0.0294,0.0293,0.0258,0.0226,0.0218,0.0131,0.0117,0.0014,0.0012,-0.0054,-0.0108,-0.0137,-0.0147,-0.0197,-0.0197,-0.016,-0.0118,-0.0143,-0.0089,-0.0127,-0.0126,-0.0126,0,0.0372,0.0382,0.041,0.0408,0.0406,0.0407,0.04,0.0397,0.0359,0.0341,0.0286,0.0235,0.0179,0.0099,-0.0011,-0.0008,-0.0078,-0.0132,-0.0133,-0.0126,-0.0158,-0.0126,-0.0085,-0.0329,-0.0124,-0.0124,-0.0124,0,0.0441,0.0445,0.0474,0.0471,0.0458,0.0463,0.0463,0.0434,0.0474,0.0443,0.0497,0.0362,0.039,0.0228,0.012,0.0058,0.0033,-0.0072,-0.0105,-0.01,-0.0145,-0.0145,-0.0343,-0.015,-0.015,-0.0151,-0.0151,0,0.05,0.0524,0.0509,0.0527,0.0584,0.0539,0.0604,0.0585,0.0611,0.0715,0.0584,0.0677,0.0428,0.0388,0.0199,0.0096,0.0093,-0.0074,-0.0088,-0.0115,-0.0112,-0.0348,-0.0466,-0.0148,-0.0149,-0.0149,-0.015,0,0.058,0.0562,0.061,0.061,0.0622,0.0672,0.0744,0.0809,0.0811,0.096,0.0985,0.0956,0.0907,0.0674,0.0485,0.0278,0.0006,0.008,0.0104,0.009,-0.0228,-0.0338,-0.0477,-0.0554,0.002,0.0021,0.0022,0,0.0629,0.066,0.0698,0.0753,0.0763,0.0832,0.0907,0.092,0.1024,0.117,0.1285,0.129,0.1335,0.1072,0.069,0.0376,0.0131,0.0152,-0.0013,-0.0225,-0.036,-0.0443,-0.0505,-0.0024,-0.0024,-0.0023,-0.0023,0,0.0748,0.0755,0.0799,0.0915,0.1,0.1106,0.1217,0.1328,0.1408,0.1548,0.1757,0.1807,0.1575,0.1266,0.0831,0.0569,-0.0019,0.0152,-0.0107,-0.0431,-0.0496,-0.0582,-0.0043,-0.0019,-0.0019,-0.002,-0.002,-0.002,0.0862,0.093,0.0999,0.1111,0.1223,0.1386,0.1501,0.1645,0.1855,0.2069,0.2108,0.2201,0.1691,0.1089,0.0753,0.0035,0.0048,-0.0239,-0.035,-0.041,-0.0518,0.0076,0.0098,0.0098,0.0098,0.0099,0.0099,0,0.1014,0.1084,0.1199,0.1347,0.1497,0.1509,0.1723,0.1848,0.2116,0.2289,0.2443,0.2196,0.1618,0.0967,0.0034,-0.0424,-0.0615,-0.0685,-0.0877,-0.0915,-0.0435,-0.0477,-0.0532,-0.0532,-0.0532,-0.0531,-0.0531,-0.0531,0.1117,0.1251,0.1301,0.1572,0.167,0.1877,0.2,0.2187,0.2323,0.2501,0.2502,0.2465,0.1891,0.0335,-0.0755,-0.1002,-0.1311,-0.1343,-0.1471,-0.1247,-0.1217,-0.1189,-0.1263,-0.1481,-0.1482,-0.1935,-0.194,-0.1943]}],[{"header":{"parameterUnit":"m.s-1","parameterCategory":2,"la1":30.2991,"la2":30.254,"lo1":-89.0895,"lo2":-89.0444,"dy":0.0017,"dx":0.0017,"nx":28,"ny":28,"refTime":"2024-04-23T21:00:00:Z","depth":"2","parameterNumber":2,"parameterNumberName":"U-component_of_CURRENTS"},"data":[0,0,0,0,0,0,0,0,0,0,0,0,0,0,0,0,0,0,0,0,0,0,0,0,0,0,0,0,0,0,0,0,0,0,0,0,0,0,0,0,0,0,0,0,0,0,0,0,0,0,0,0,0,0,0,0,0,0,0.2118,0.2118,0,0.2135,0.2135,0.2135,0.2136,0.2137,0.2137,0.2137,0.2227,0.223,0.2232,0,0,0,0,0,0,0,0,0,0,0,0,0,0.206,0.2061,0.2118,0.2118,0.2119,0.2135,0.2135,0.2135,0.2136,0.2137,0.2137,0.2137,0.2227,0.2229,0.2232,0,0,0,0,0,0,0,0,0,0,0,0,0,0.2079,0.2061,0.2118,0.2123,0.2124,0.2135,0.2135,0.2135,0.2136,0.2137,0.2137,0.2137,0.2226,0.2229,0.2233,0.2252,0,0,0.2243,0.2245,0,0,0,0,0,0,0,0,0.2078,0.2081,0.2122,0.2123,0.2124,0.2136,0.2148,0.2179,0.2136,0.2129,0.2137,0.2137,0.2205,0.221,0.2209,0.2257,0.226,0.2244,0.2246,0.2247,0.2248,0,0,0,0,0,0,0,0.2077,0.208,0.2122,0.2123,0.2124,0.2116,0.2119,0.2153,0.2166,0.213,0.213,0.2137,0.2206,0.2205,0.2211,0.2262,0.2244,0.2247,0.2249,0.225,0.2354,0.2354,0,0,0,0,0,0,0.2082,0.2079,0.2121,0.2122,0.2104,0.2117,0.212,0.213,0.2164,0.2169,0.2136,0.2137,0.2199,0.2207,0.2214,0.23,0.2247,0.2251,0.2253,0.2353,0.2354,0.2354,0,0,0,0,0,0,0.2081,0.2085,0.2121,0.2103,0.2107,0.2119,0.2129,0.213,0.2145,0.2169,0.2175,0.2153,0.2199,0.2209,0.2245,0.2301,0.2252,0.2255,0.2352,0.2353,0.2354,0.2432,0,0,0,0,0,0,0.2079,0.2085,0.2097,0.2104,0.2109,0.2144,0.2129,0.213,0.2149,0.215,0.2185,0.2192,0.22,0.224,0.2249,0.2305,0.2258,0.2351,0.2353,0.2354,0.2429,0.2436,0.2442,0,0,0,0,0,0.2077,0.2093,0.2097,0.2103,0.2124,0.2145,0.2148,0.2153,0.215,0.2165,0.2174,0.2192,0.2254,0.2243,0.2253,0.2312,0.2351,0.2352,0.2354,0.2426,0.2434,0.2442,0,0,0,0,0,0,0.2076,0.2095,0.21,0.2122,0.2141,0.2147,0.216,0.2164,0.2182,0.2183,0.2199,0.2207,0.2265,0.2264,0.2251,0.2339,0.2307,0.231,0.2358,0.2366,0.2372,0.2369,0.2261,0,0,0,0,0,0.2081,0.2098,0.2117,0.2137,0.2147,0.2156,0.2167,0.2173,0.2187,0.2194,0.2217,0.2239,0.2276,0.2299,0.2325,0.2373,0.2402,0.2414,0.242,0.2426,0.2427,0.2504,0.2519,0.2359,0.2359,0.2359,0,0,0.2083,0.21,0.2108,0.2138,0.2149,0.2169,0.2163,0.2186,0.2207,0.2204,0.2242,0.2269,0.2292,0.2345,0.2371,0.2354,0.2492,0.2428,0.2433,0.243,0.2508,0.2524,0.2538,0.236,0.236,0.236,0,0,0.2097,0.2115,0.2133,0.215,0.2178,0.2188,0.2201,0.222,0.2235,0.2269,0.2281,0.2327,0.2372,0.2403,0.2424,0.2477,0.2525,0.2498,0.2535,0.2611,0.2626,0.2639,0.2727,0.2747,0.2499,0.25,0.25,0,0.21,0.2127,0.2143,0.2165,0.2183,0.22,0.2224,0.2242,0.2272,0.2303,0.2288,0.2382,0.2398,0.2483,0.2494,0.2498,0.2552,0.2511,0.2623,0.2637,0.2649,0.2735,0.2757,0.2504,0.2503,0.2503,0.2502,0,0.212,0.2148,0.2162,0.2196,0.2219,0.2244,0.2271,0.2304,0.2325,0.2353,0.2438,0.2457,0.252,0.2537,0.253,0.2636,0.2654,0.2629,0.2612,0.267,0.2757,0.2778,0.2509,0.2508,0.2507,0.2506,0,0,0.2109,0.2165,0.2169,0.2195,0.2238,0.2259,0.2306,0.2366,0.2421,0.2455,0.2537,0.2584,0.2618,0.264,0.2662,0.271,0.2844,0.2708,0.271,0.281,0.3044,0.2982,0.2999,0.2855,0.2858,0.2861,0.3082,0,0.2122,0.2166,0.2194,0.2243,0.227,0.2308,0.2357,0.2415,0.2471,0.2556,0.2604,0.2693,0.2654,0.2713,0.2756,0.2831,0.2898,0.2787,0.2958,0.2963,0.2913,0.302,0.273,0.2895,0.3102,0.3106,0.3108,0,0.2129,0.2163,0.2211,0.2282,0.2298,0.2332,0.2429,0.2479,0.2597,0.2651,0.2744,0.2801,0.2909,0.2852,0.3011,0.2953,0.3003,0.3038,0.3047,0.2971,0.2939,0.2862,0.2925,0.3143,0.3141,0.3138,0.3136,0,0.2107,0.2174,0.2218,0.2236,0.2319,0.2357,0.2406,0.2513,0.2595,0.2738,0.2837,0.2943,0.3049,0.3107,0.3182,0.3125,0.3349,0.3282,0.3276,0.3274,0.3046,0.3017,0.3391,0.3391,0.339,0.339,0.3389,0,0.2103,0.2135,0.2214,0.2231,0.2314,0.2359,0.2462,0.2537,0.2676,0.2813,0.2899,0.3033,0.3121,0.3254,0.3265,0.3358,0.3433,0.3313,0.3333,0.3066,0.3037,0.3245,0.3225,0.3398,0.3396,0.3394,0.3393,0,0.2073,0.2116,0.2181,0.2269,0.2308,0.2365,0.2501,0.2586,0.2717,0.2906,0.2976,0.3166,0.3326,0.3403,0.3538,0.3497,0.3563,0.3571,0.3261,0.3237,0.3416,0.3397,0.3593,0.3593,0.3593,0.3593,0.3592,0,0.2069,0.2101,0.2209,0.2262,0.2306,0.2398,0.2479,0.2603,0.2712,0.2985,0.3091,0.3309,0.3412,0.3586,0.3554,0.3592,0.3635,0.3369,0.3174,0.3441,0.3441,0.3422,0.3404,0.2927,0.2921,0.2917,0.2913,0,0.2079,0.2119,0.2168,0.2277,0.2362,0.2449,0.2567,0.265,0.2834,0.2975,0.3181,0.3274,0.3439,0.3331,0.3384,0.3355,0.3324,0.3278,0.368,0.2904,0.2826,0.2821,0.2823,0.2872,0.2876,0.2879,0.2882,0.2883,0.2103,0.2137,0.221,0.2299,0.2389,0.2462,0.2497,0.2628,0.2753,0.2879,0.3055,0.3066,0.3129,0.3012,0.2973,0.2951,0.3142,0.2994,0.3003,0.3018,0.2885,0.2808,0.283,0.2833,0.2836,0.2839,0.2842,0,0.2122,0.2157,0.2235,0.231,0.2352,0.2428,0.2537,0.2515,0.2591,0.2698,0.2752,0.2511,0.2456,0.254,0.2427,0.2457,0.2378,0.2383,0.2237,0.2281,0.2319,0.2143,0.1896,0.1893,0.189,0.1887,0,0,0.2135,0.218,0.2193,0.224,0.2295,0.2303,0.2329,0.2309,0.2336,0.2223,0.2179,0.2266,0.2436,0.2096,0.209,0.198,0.2108,0.1913,0.2674,0.2544,0.2578,0.2681,0.2463,0,0,0,0,0]},{"header":{"parameterUnit":"m.s-1","parameterCategory":2,"la1":30.2991,"la2":30.254,"lo1":-89.0895,"lo2":-89.0444,"dy":0.0017,"dx":0.0017,"nx":28,"ny":28,"refTime":"2024-04-23T21:00:00:Z","depth":"2","parameterNumber":3,"parameterNumberName":"V-component_of_CURRENTS"},"data":[0,0,0,0,0,0,0,0,0,0,0,0,0,0,0,0,0,0,0,0,0,0,0,0,0,0,0,0,0,0,0,0,0,0,0,0,0,0,0,0,0,0,0,0,0,0,0,0,0,0,0,0,0,0,0,0,0,0,-0.0202,-0.0203,0,-0.0275,-0.0276,-0.0277,-0.0321,-0.0321,-0.0321,-0.0322,-0.0432,-0.0434,-0.0437,0,0,0,0,0,0,0,0,0,0,0,0,0,-0.0134,-0.0135,-0.0202,-0.0203,-0.0204,-0.0275,-0.0276,-0.0277,-0.0321,-0.0321,-0.0322,-0.0322,-0.0431,-0.0434,-0.0437,0,0,0,0,0,0,0,0,0,0,0,0,0,-0.0181,-0.0135,-0.0202,-0.0235,-0.0239,-0.0275,-0.0276,-0.0277,-0.0321,-0.0321,-0.0322,-0.0322,-0.043,-0.0434,-0.0438,-0.0455,0,0,-0.045,-0.0452,0,0,0,0,0,0,0,0,-0.0178,-0.0183,-0.0229,-0.0233,-0.0237,-0.029,-0.0292,-0.0338,-0.0321,-0.0289,-0.0322,-0.0322,-0.0388,-0.0395,-0.0407,-0.046,-0.0465,-0.045,-0.0453,-0.0454,-0.0456,0,0,0,0,0,0,0,-0.0175,-0.018,-0.0231,-0.023,-0.0235,-0.0257,-0.0264,-0.0301,-0.0336,-0.0292,-0.0295,-0.0304,-0.039,-0.0403,-0.041,-0.0466,-0.045,-0.0454,-0.0456,-0.0458,-0.0533,-0.0533,0,0,0,0,0,0,-0.0164,-0.0177,-0.0228,-0.0233,-0.0208,-0.0258,-0.0266,-0.0272,-0.0335,-0.0344,-0.0304,-0.0306,-0.0396,-0.0405,-0.0414,-0.0433,-0.0454,-0.0458,-0.0461,-0.0534,-0.0533,-0.0533,0,0,0,0,0,0,-0.0163,-0.0168,-0.0225,-0.0207,-0.0216,-0.0259,-0.0266,-0.0273,-0.0288,-0.0343,-0.0354,-0.031,-0.0396,-0.0408,-0.044,-0.0438,-0.046,-0.0464,-0.0534,-0.0533,-0.0533,-0.0476,0,0,0,0,0,0,-0.016,-0.0167,-0.0166,-0.0206,-0.0217,-0.024,-0.0266,-0.0274,-0.0292,-0.0296,-0.0352,-0.0363,-0.0398,-0.0434,-0.0444,-0.0444,-0.0467,-0.0535,-0.0534,-0.0533,-0.0478,-0.0473,-0.0469,0,0,0,0,0,-0.0158,-0.0154,-0.0165,-0.0171,-0.0214,-0.024,-0.0247,-0.0279,-0.0292,-0.0294,-0.033,-0.0361,-0.0436,-0.0437,-0.0449,-0.045,-0.0535,-0.0534,-0.0533,-0.048,-0.0474,-0.0469,0,0,0,0,0,0,-0.0124,-0.0159,-0.0172,-0.0179,-0.0204,-0.0247,-0.0253,-0.0275,-0.0304,-0.0307,-0.0359,-0.0372,-0.04,-0.043,-0.0429,-0.0468,-0.049,-0.0491,-0.0445,-0.044,-0.0436,-0.0411,-0.047,0,0,0,0,0,-0.0115,-0.012,-0.0158,-0.0162,-0.0173,-0.0211,-0.0225,-0.0245,-0.0278,-0.0292,-0.033,-0.0369,-0.0406,-0.0425,-0.0461,-0.0483,-0.0505,-0.049,-0.0486,-0.0481,-0.0469,-0.0506,-0.0503,-0.053,-0.053,-0.053,0,0,-0.0103,-0.0123,-0.0126,-0.0155,-0.0177,-0.0183,-0.022,-0.0236,-0.024,-0.0299,-0.0315,-0.0358,-0.0408,-0.0432,-0.0447,-0.0457,-0.0483,-0.048,-0.0476,-0.0466,-0.0505,-0.0502,-0.05,-0.0529,-0.0529,-0.0529,0,0,-0.0079,-0.0098,-0.0094,-0.0111,-0.0138,-0.016,-0.0162,-0.02,-0.0216,-0.0237,-0.0281,-0.0316,-0.0369,-0.0403,-0.0428,-0.0419,-0.046,-0.0434,-0.0391,-0.0427,-0.0425,-0.0424,-0.0436,-0.0436,-0.0429,-0.0429,-0.0429,0,-0.0061,-0.0064,-0.0096,-0.0096,-0.0104,-0.0145,-0.0139,-0.0161,-0.0203,-0.0211,-0.0231,-0.0305,-0.0352,-0.0384,-0.0382,-0.0409,-0.0428,-0.0409,-0.0421,-0.042,-0.042,-0.0433,-0.0434,-0.0426,-0.0427,-0.0427,-0.0427,0,-0.0039,-0.0037,-0.0036,-0.0047,-0.0058,-0.006,-0.0091,-0.0101,-0.0124,-0.0149,-0.0182,-0.0244,-0.0284,-0.0311,-0.0346,-0.0367,-0.038,-0.0413,-0.0433,-0.0414,-0.0428,-0.043,-0.0422,-0.0423,-0.0424,-0.0425,0,0,-0.0003,-0.0016,-0.0013,-0.0006,-0.0031,-0.0034,-0.0037,-0.0051,-0.0044,-0.0093,-0.0089,-0.0166,-0.0197,-0.0227,-0.0281,-0.0316,-0.0334,-0.0356,-0.036,-0.0363,-0.0395,-0.0423,-0.0428,-0.0373,-0.0374,-0.0374,-0.0402,0,0.0028,0.0043,0.0027,0.0051,0.0058,0.0029,0.0037,0.0019,-0.0004,-0.0008,-0.0075,-0.009,-0.0166,-0.0176,-0.0229,-0.0302,-0.0338,-0.0321,-0.0417,-0.0419,-0.0444,-0.0432,-0.0399,-0.0424,-0.0404,-0.0405,-0.0405,0,0.0059,0.0065,0.0092,0.0107,0.0109,0.0121,0.0129,0.0131,0.0109,0.0095,0.0057,0.0013,-0.0038,-0.0103,-0.0222,-0.0208,-0.0293,-0.0357,-0.0361,-0.0407,-0.0451,-0.0444,-0.0429,-0.0409,-0.0409,-0.0408,-0.0408,0,0.0102,0.0117,0.0144,0.0145,0.0151,0.0167,0.0176,0.0165,0.0194,0.0173,0.0201,0.0107,0.0099,-0.0033,-0.0167,-0.0192,-0.0293,-0.0346,-0.0452,-0.0454,-0.0454,-0.0456,-0.0432,-0.0432,-0.0432,-0.0432,-0.0432,0,0.014,0.0163,0.0171,0.0185,0.0241,0.0221,0.0277,0.0275,0.0296,0.0359,0.0268,0.0292,0.0117,0.0038,-0.0121,-0.0279,-0.026,-0.0434,-0.0465,-0.0432,-0.0432,-0.0446,-0.0447,-0.0433,-0.0433,-0.0433,-0.0433,0,0.0181,0.0181,0.022,0.0241,0.0265,0.0304,0.0371,0.0417,0.0423,0.0507,0.0521,0.0455,0.0343,0.0161,-0.0032,-0.0189,-0.0356,-0.0421,-0.0357,-0.0382,-0.0504,-0.0502,-0.0541,-0.0542,-0.0543,-0.0544,-0.0545,0,0.0203,0.0229,0.0277,0.0319,0.0336,0.0396,0.0459,0.0486,0.0549,0.0609,0.0666,0.0595,0.0529,0.0233,-0.004,-0.0307,-0.0349,-0.0449,-0.051,-0.049,-0.0516,-0.0513,-0.0509,-0.0478,-0.0478,-0.0478,-0.0478,0,0.0255,0.0272,0.0303,0.0393,0.0466,0.0545,0.0632,0.0696,0.0756,0.0796,0.0829,0.0779,0.0543,0.0267,-0.0073,-0.0258,-0.041,-0.0462,-0.045,-0.0462,-0.0435,-0.046,-0.0457,-0.0479,-0.0479,-0.0479,-0.0479,-0.0479,0.0299,0.0331,0.0383,0.0461,0.0564,0.0668,0.0703,0.0793,0.0868,0.094,0.0929,0.087,0.0619,0.0162,-0.0129,-0.0417,-0.0433,-0.0544,-0.0541,-0.0539,-0.0534,-0.0511,-0.0567,-0.0567,-0.0567,-0.0568,-0.0568,0,0.0322,0.037,0.0449,0.0521,0.0608,0.0688,0.0802,0.0821,0.0863,0.1005,0.0995,0.0775,0.0491,0.022,-0.0213,-0.0499,-0.0514,-0.0574,-0.0527,-0.0525,-0.0523,-0.0516,-0.0544,-0.0545,-0.0545,-0.0546,0,0,0.0334,0.0379,0.0398,0.0517,0.0607,0.0703,0.0752,0.0819,0.0898,0.0958,0.0983,0.0962,0.062,0.0317,-0.0055,-0.029,-0.0344,-0.034,-0.0333,-0.0232,-0.0226,-0.0484,-0.0468,0,0,0,0,0]}],[{"header":{"parameterUnit":"m.s-1","parameterCategory":2,"la1":30.2991,"la2":30.254,"lo1":-89.0895,"lo2":-89.0444,"dy":0.0017,"dx":0.0017,"nx":28,"ny":28,"refTime":"2024-04-23T21:00:00:Z","depth":"4","parameterNumber":2,"parameterNumberName":"U-component_of_CURRENTS"},"data":[0,0,0,0,0,0,0,0,0,0,0,0,0,0,0,0,0,0,0,0,0,0,0,0,0,0,0,0,0,0,0,0,0,0,0,0,0,0,0,0,0,0,0,0,0,0,0,0,0,0,0,0,0,0,0,0,0,0,0.1245,0.1245,0,0.1304,0.1305,0.1305,0.1355,0.1356,0.1356,0.1357,0.138,0.138,0.138,0,0,0,0,0,0,0,0,0,0,0,0,0,0.1143,0.1144,0.1244,0.1245,0.1246,0.1304,0.1305,0.1305,0.1355,0.1356,0.1357,0.1358,0.1381,0.138,0.138,0,0,0,0,0,0,0,0,0,0,0,0,0,0.119,0.1145,0.1244,0.128,0.1284,0.1304,0.1305,0.1305,0.1355,0.1356,0.1357,0.1358,0.1381,0.138,0.138,0.1355,0,0,0.138,0.138,0,0,0,0,0,0,0,0,0.1188,0.1194,0.1274,0.1278,0.1282,0.1326,0.1278,0.1321,0.1354,0.1325,0.1357,0.1359,0.136,0.1361,0.1366,0.1356,0.1357,0.138,0.138,0.1379,0.1379,0,0,0,0,0,0,0,0.1184,0.1191,0.1265,0.1275,0.128,0.1283,0.1291,0.1286,0.1332,0.1327,0.1332,0.1343,0.1362,0.1366,0.1367,0.1358,0.138,0.1379,0.1379,0.1379,0.1442,0.1444,0,0,0,0,0,0,0.1183,0.1188,0.1263,0.1267,0.124,0.1284,0.1293,0.1308,0.1333,0.1339,0.1342,0.1345,0.1366,0.1367,0.1368,0.1436,0.1379,0.1379,0.1379,0.1441,0.1443,0.1445,0,0,0,0,0,0,0.1181,0.119,0.1261,0.1231,0.1241,0.1285,0.1302,0.1309,0.1348,0.1345,0.135,0.1377,0.1367,0.1369,0.1404,0.1434,0.1379,0.1379,0.1438,0.1441,0.1444,0.151,0,0,0,0,0,0,0.1178,0.1188,0.1208,0.1231,0.1243,0.1297,0.1301,0.1309,0.1352,0.1358,0.1376,0.1378,0.1368,0.1404,0.1404,0.1432,0.1379,0.1436,0.144,0.1443,0.1505,0.1514,0.1522,0,0,0,0,0,0.1174,0.1191,0.1209,0.1219,0.1266,0.1298,0.1305,0.1337,0.1353,0.1375,0.1397,0.1379,0.1425,0.1406,0.1404,0.1434,0.1435,0.1439,0.1443,0.1501,0.1512,0.1522,0,0,0,0,0,0,0.1158,0.1199,0.1219,0.1249,0.1285,0.1308,0.1333,0.1354,0.1388,0.1401,0.1397,0.1401,0.1435,0.1431,0.141,0.1464,0.1428,0.1432,0.1473,0.1483,0.1492,0.1486,0.1379,0,0,0,0,0,0.1163,0.119,0.1229,0.1257,0.1277,0.1311,0.1333,0.1358,0.1386,0.1404,0.1419,0.1436,0.1444,0.1464,0.1463,0.1497,0.1505,0.1517,0.1526,0.1533,0.1529,0.1572,0.1584,0.1458,0.1458,0.1458,0,0,0.1164,0.1192,0.1208,0.1256,0.1285,0.1317,0.1328,0.1372,0.1401,0.1397,0.1448,0.1456,0.1456,0.1491,0.1508,0.15,0.1581,0.1538,0.1544,0.1536,0.1578,0.159,0.1601,0.1461,0.146,0.146,0,0,0.1169,0.1208,0.123,0.1266,0.132,0.134,0.1361,0.1407,0.1435,0.1481,0.1483,0.152,0.154,0.1552,0.1556,0.1612,0.1611,0.162,0.1672,0.1714,0.1725,0.1734,0.1789,0.1803,0.164,0.164,0.164,0,0.1171,0.1205,0.1242,0.1277,0.1308,0.1354,0.1385,0.1417,0.1472,0.15,0.1508,0.1563,0.1565,0.1605,0.1631,0.1629,0.1661,0.1632,0.1725,0.1734,0.1742,0.1796,0.181,0.1643,0.1643,0.1643,0.1642,0,0.1191,0.1228,0.1247,0.1305,0.1342,0.138,0.1429,0.1474,0.1514,0.155,0.161,0.1626,0.1668,0.1675,0.167,0.1735,0.1742,0.1718,0.1696,0.1758,0.1812,0.1826,0.1649,0.1647,0.1646,0.1645,0,0,0.1162,0.1243,0.1254,0.1284,0.1363,0.1391,0.1449,0.1509,0.1556,0.1616,0.1674,0.1708,0.1744,0.1751,0.1762,0.18,0.1895,0.1798,0.1798,0.1849,0.2015,0.1878,0.1879,0.1896,0.1898,0.1899,0.2039,0,0.1167,0.1222,0.1267,0.1324,0.1354,0.1421,0.1471,0.1539,0.1596,0.1665,0.171,0.1765,0.1767,0.1803,0.1847,0.1873,0.1929,0.186,0.1949,0.1952,0.1819,0.1888,0.1906,0.2049,0.2052,0.2054,0.2056,0,0.1168,0.1205,0.1258,0.1335,0.1358,0.1406,0.1499,0.1558,0.1662,0.1709,0.179,0.1826,0.1911,0.1888,0.2001,0.1966,0.2003,0.2018,0.2023,0.1873,0.1838,0.1968,0.208,0.2078,0.2076,0.2075,0.2073,0,0.112,0.1196,0.1235,0.1266,0.1363,0.1409,0.1476,0.1582,0.1643,0.1757,0.1822,0.1908,0.1983,0.2031,0.2082,0.2064,0.2181,0.216,0.2075,0.2068,0.212,0.2108,0.2233,0.2233,0.2233,0.2232,0.2232,0,0.1101,0.1134,0.1222,0.1251,0.1309,0.1399,0.1484,0.1561,0.1682,0.1755,0.1864,0.1917,0.2024,0.2098,0.2119,0.214,0.2229,0.2092,0.209,0.2149,0.2139,0.2131,0.2117,0.2238,0.2237,0.2236,0.2235,0,0.1047,0.1107,0.115,0.1251,0.1292,0.1344,0.1491,0.1544,0.1688,0.1786,0.1832,0.1974,0.2073,0.2154,0.2237,0.2194,0.2208,0.2189,0.2271,0.227,0.2068,0.2056,0.213,0.2127,0.2123,0.2121,0.2119,0,0.1019,0.1036,0.1137,0.1165,0.1219,0.1314,0.1375,0.1527,0.1579,0.1786,0.1808,0.1972,0.2045,0.2082,0.2157,0.2212,0.2179,0.2188,0.2101,0.2064,0.2057,0.205,0.2043,0.2113,0.2113,0.2112,0.2111,0,0.0944,0.0988,0.1024,0.1087,0.1148,0.1206,0.1306,0.1344,0.1512,0.1668,0.1748,0.182,0.1935,0.1997,0.2062,0.2078,0.2173,0.2154,0.216,0.2079,0.2045,0.2039,0.2035,0.21,0.2101,0.2102,0.2103,0,0.0878,0.0879,0.0926,0.0976,0.1044,0.1064,0.1141,0.1215,0.1304,0.1544,0.1555,0.1739,0.1891,0.1929,0.1965,0.1994,0.1976,0.1908,0.1927,0.194,0.1809,0.1733,0.17,0,0,0,0,0,0.0799,0.0786,0.0812,0.0852,0.0916,0.0958,0.1067,0.1146,0.1328,0.1345,0.1454,0.1546,0.1657,0.174,0.1738,0.1881,0.1969,0.1869,0.1894,0.2038,0.2051,0.1912,0,0,0,0,0,0,0.074,0.075,0.076,0.0726,0.0748,0.0796,0.0862,0.0984,0.1004,0.121,0.1276,0.1449,0.1571,0.1648,0.1708,0.1737,0.172,0.1993,0.1989,0.2031,0.2043,0.2053,0.1914,0,0,0,0,0]},{"header":{"parameterUnit":"m.s-1","parameterCategory":2,"la1":30.2991,"la2":30.254,"lo1":-89.0895,"lo2":-89.0444,"dy":0.0017,"dx":0.0017,"nx":28,"ny":28,"refTime":"2024-04-23T21:00:00:Z","depth":"4","parameterNumber":3,"parameterNumberName":"V-component_of_CURRENTS"},"data":[0,0,0,0,0,0,0,0,0,0,0,0,0,0,0,0,0,0,0,0,0,0,0,0,0,0,0,0,0,0,0,0,0,0,0,0,0,0,0,0,0,0,0,0,0,0,0,0,0,0,0,0,0,0,0,0,0,0,-0.011,-0.0111,0,-0.0154,-0.0155,-0.0155,-0.0189,-0.0189,-0.019,-0.019,-0.0247,-0.0248,-0.0249,0,0,0,0,0,0,0,0,0,0,0,0,0,-0.0075,-0.0076,-0.011,-0.0111,-0.0112,-0.0154,-0.0155,-0.0155,-0.0189,-0.0189,-0.019,-0.019,-0.0247,-0.0248,-0.0249,0,0,0,0,0,0,0,0,0,0,0,0,0,-0.0102,-0.0076,-0.011,-0.0134,-0.0136,-0.0154,-0.0155,-0.0156,-0.0189,-0.0189,-0.019,-0.019,-0.0246,-0.0248,-0.025,-0.025,0,0,-0.0255,-0.0256,0,0,0,0,0,0,0,0,-0.01,-0.0103,-0.013,-0.0132,-0.0135,-0.0167,-0.0164,-0.0188,-0.0189,-0.0169,-0.019,-0.0191,-0.0221,-0.0225,-0.0232,-0.0253,-0.0255,-0.0255,-0.0256,-0.0257,-0.0258,0,0,0,0,0,0,0,-0.0098,-0.0101,-0.0127,-0.013,-0.0134,-0.0149,-0.0153,-0.0168,-0.0191,-0.017,-0.0173,-0.0178,-0.0223,-0.023,-0.0233,-0.0256,-0.0255,-0.0257,-0.0258,-0.0259,-0.0297,-0.0297,0,0,0,0,0,0,-0.0092,-0.0099,-0.0126,-0.0129,-0.0119,-0.0149,-0.0154,-0.0156,-0.0191,-0.0197,-0.0178,-0.018,-0.0226,-0.0231,-0.0235,-0.0241,-0.0257,-0.0259,-0.026,-0.0297,-0.0297,-0.0297,0,0,0,0,0,0,-0.0091,-0.0094,-0.0124,-0.0116,-0.0121,-0.0149,-0.0151,-0.0157,-0.017,-0.0197,-0.0203,-0.0186,-0.0227,-0.0233,-0.0252,-0.0244,-0.026,-0.0261,-0.0297,-0.0297,-0.0297,-0.0252,0,0,0,0,0,0,-0.009,-0.0093,-0.0094,-0.0115,-0.0121,-0.0136,-0.0151,-0.0157,-0.0172,-0.0175,-0.0206,-0.0211,-0.0228,-0.0249,-0.0253,-0.0247,-0.0263,-0.0297,-0.0297,-0.0297,-0.0253,-0.025,-0.0247,0,0,0,0,0,-0.0088,-0.0088,-0.0094,-0.0097,-0.0121,-0.0136,-0.014,-0.0162,-0.0172,-0.0176,-0.0197,-0.0211,-0.0251,-0.025,-0.0256,-0.0249,-0.0297,-0.0297,-0.0297,-0.0254,-0.0251,-0.0247,0,0,0,0,0,0,-0.0077,-0.0091,-0.0099,-0.0104,-0.0119,-0.0142,-0.0148,-0.0162,-0.0181,-0.0184,-0.021,-0.0217,-0.0228,-0.0248,-0.0246,-0.0261,-0.0276,-0.0277,-0.0242,-0.0239,-0.0236,-0.0216,-0.0264,0,0,0,0,0,-0.0073,-0.0075,-0.0093,-0.0098,-0.0103,-0.0125,-0.0135,-0.0148,-0.0167,-0.0176,-0.0197,-0.0218,-0.0231,-0.0243,-0.0258,-0.0268,-0.0293,-0.0268,-0.0265,-0.0262,-0.025,-0.0276,-0.0274,-0.0296,-0.0296,-0.0296,0,0,-0.007,-0.0079,-0.008,-0.0095,-0.0108,-0.0108,-0.0132,-0.0144,-0.0142,-0.0178,-0.0185,-0.0207,-0.0231,-0.0239,-0.0246,-0.0256,-0.0275,-0.0262,-0.0259,-0.0248,-0.0275,-0.0273,-0.0271,-0.0296,-0.0296,-0.0296,0,0,-0.0061,-0.0072,-0.0068,-0.0076,-0.0091,-0.01,-0.0103,-0.0124,-0.0133,-0.0143,-0.0164,-0.0181,-0.0208,-0.0219,-0.0228,-0.0219,-0.0255,-0.0229,-0.02,-0.0225,-0.0223,-0.0222,-0.0272,-0.0276,-0.0231,-0.023,-0.023,0,-0.0056,-0.0053,-0.0071,-0.0067,-0.0067,-0.0093,-0.0084,-0.0095,-0.0119,-0.0119,-0.014,-0.0168,-0.0194,-0.0192,-0.0192,-0.021,-0.0241,-0.021,-0.022,-0.0219,-0.0218,-0.0271,-0.0275,-0.0228,-0.0229,-0.0229,-0.0229,0,-0.0043,-0.0039,-0.0038,-0.0036,-0.0038,-0.0038,-0.0048,-0.005,-0.0065,-0.0077,-0.0084,-0.0119,-0.0134,-0.0148,-0.0169,-0.0172,-0.0203,-0.021,-0.0226,-0.0213,-0.027,-0.0275,-0.0225,-0.0226,-0.0227,-0.0227,0,0,-0.0034,-0.0028,-0.0027,-0.0014,-0.002,-0.0017,-0.0006,-0.0002,0.001,-0.002,-0.0011,-0.0041,-0.0064,-0.0075,-0.0105,-0.0131,-0.0167,-0.0168,-0.017,-0.0212,-0.0245,-0.0252,-0.0259,-0.0178,-0.0178,-0.0178,-0.0295,0,-0.0017,0.0002,0.0002,0.0028,0.0039,0.0035,0.0053,0.0054,0.0043,0.0043,0.001,0.0001,-0.0034,-0.0046,-0.0073,-0.0141,-0.0175,-0.0136,-0.0255,-0.0259,-0.0261,-0.0262,-0.0178,-0.0299,-0.03,-0.0301,-0.0301,0,-0.0001,0.0012,0.0038,0.0073,0.0079,0.0095,0.0124,0.0134,0.013,0.0121,0.0106,0.0073,0.0035,0.0,-0.01,-0.0076,-0.0152,-0.0209,-0.0215,-0.0235,-0.0274,-0.031,-0.0311,-0.0311,-0.031,-0.0309,-0.0309,0,0.0015,0.0042,0.0068,0.0075,0.0105,0.0126,0.0145,0.0156,0.0172,0.0164,0.016,0.012,0.008,0.0003,-0.0123,-0.0114,-0.0247,-0.0251,-0.033,-0.0334,-0.0313,-0.0313,-0.0317,-0.0317,-0.0317,-0.0316,-0.0316,0,0.0035,0.0056,0.0079,0.0093,0.0138,0.0151,0.0196,0.0208,0.0223,0.0239,0.0197,0.018,0.0078,-0.0013,-0.0112,-0.0245,-0.0244,-0.0323,-0.0355,-0.0296,-0.0292,-0.0318,-0.0317,-0.0321,-0.032,-0.0319,-0.0318,0,0.004,0.0056,0.0086,0.0124,0.0144,0.0172,0.0227,0.0255,0.0264,0.0278,0.0273,0.0208,0.0091,-0.0026,-0.0175,-0.0243,-0.036,-0.041,-0.036,-0.0388,-0.0435,-0.043,-0.0496,-0.0497,-0.0498,-0.0499,-0.0499,0,0.004,0.0055,0.0101,0.0126,0.0144,0.0192,0.023,0.0269,0.0293,0.0287,0.0286,0.0187,0.0128,-0.0081,-0.0211,-0.0394,-0.0415,-0.0479,-0.0427,-0.0425,-0.045,-0.0443,-0.0437,-0.0501,-0.0501,-0.0501,-0.0501,0,0.0033,0.0047,0.0074,0.0128,0.017,0.0231,0.0282,0.0305,0.034,0.0339,0.0309,0.0213,0.0074,-0.0078,-0.0229,-0.0359,-0.0429,-0.0488,-0.0486,-0.0438,-0.0431,-0.0454,-0.0447,-0.0504,-0.0504,-0.0504,-0.0504,0,0.0021,0.0036,0.0074,0.0133,0.0186,0.0255,0.0288,0.0323,0.0357,0.0357,0.0332,0.0206,0.0129,-0.0065,-0.0206,-0.0329,-0.0348,-0.0367,-0.0372,-0.0371,-0.0291,-0.0261,-0.0307,0,0,0,0,0,0.0007,0.0036,0.008,0.0152,0.0209,0.0256,0.0318,0.0345,0.0367,0.0361,0.0363,0.0245,0.0056,-0.004,-0.0161,-0.024,-0.039,-0.0388,-0.0418,-0.0521,-0.0517,-0.0444,0,0,0,0,0,0,-0.0005,0.0029,0.0075,0.0164,0.0218,0.0296,0.0341,0.0362,0.0365,0.0363,0.0262,0.0223,0.0028,0.0132,-0.016,-0.0203,-0.0235,-0.048,-0.0482,-0.0523,-0.052,-0.0517,-0.044,0,0,0,0,0]}]]